MB7UUE Weather Reports


Display with metric or nautical units.
time (UTC)temp
F
wind
direction
speed
MPH
gust
MPH
rain 1hr
in
rain 24hr
in
rain mn
in
humidity
%
barometer
mb
20260507073939 52 101 0.0 0.0 0.00 0.00 0.00 73 1016.4
20260507072038 51 273 0.0 0.0 0.00 0.00 0.00 74 1016.3
20260507070115 51 78 0.0 0.0 0.00 0.00 0.00 76 1016.2
20260507064214 50 66 0.0 0.0 0.00 0.00 0.00 76 1016.2
20260507062314 49 108 0.0 0.0 0.00 0.00 0.00 78 1016.1
20260507060415 49 79 0.0 0.0 0.00 0.00 0.00 79 1016.0
20260507054514 48 25 0.0 0.0 0.00 0.00 0.00 78 1015.9
20260507052615 48 34 0.0 0.0 0.00 0.00 0.00 78 1015.7
20260507050715 48 0 0.0 0.0 0.00 0.00 0.00 78 1015.7
20260507044816 48 0 0.0 0.0 0.00 0.00 0.00 78 1015.6
20260507042914 48 0 0.0 0.0 0.00 0.00 0.00 78 1015.5
20260507041015 48 0 0.0 0.0 0.00 0.00 0.00 78 1015.5
20260507035114 48 0 0.0 0.0 0.00 0.00 0.00 78 1015.4
20260507033214 48 0 0.0 0.0 0.00 0.00 0.00 78 1015.4
20260507031315 48 0 0.0 0.0 0.00 0.00 0.00 77 1015.4
20260507025414 49 0 0.0 0.0 0.00 0.00 0.00 77 1015.4
20260507023515 49 5 0.0 0.0 0.00 0.00 0.00 77 1015.3
20260507021615 49 61 0.0 0.0 0.00 0.00 0.00 76 1015.1
20260507015715 49 62 0.0 0.0 0.00 0.00 0.00 76 1015.0
20260507013814 49 76 0.0 0.0 0.00 0.00 0.00 75 1015.1
20260507011914 50 87 0.0 0.0 0.00 0.00 0.00 75 1015.0
20260507010015 50 88 0.0 0.0 0.00 0.00 0.00 75 1015.0
20260507004115 50 110 0.0 0.0 0.00 0.00 0.00 75 1015.0
20260507002214 51 76 0.0 0.0 0.00 0.00 0.00 75 1015.0
20260507000315 51 138 0.0 0.0 0.00 0.00 0.00 75 1015.0
20260506234415 51 61 0.0 0.0 0.00 0.00 0.00 75 1015.0
20260506232514 51 116 0.0 0.0 0.00 0.00 0.00 75 1015.0
20260506230614 52 89 0.0 0.0 0.00 0.00 0.00 75 1015.0
20260506224714 52 321 0.0 17.0 0.00 0.00 0.00 74 1014.9
20260506222814 52 320 0.0 17.0 0.00 0.00 0.00 73 1014.9
20260506220915 52 320 0.0 17.0 0.00 0.00 0.00 72 1014.8
20260506215014 52 320 0.0 17.0 0.00 0.00 0.00 71 1014.7
20260506213115 52 321 0.0 17.0 0.00 0.00 0.00 71 1014.7
20260506211214 52 316 0.0 17.0 0.00 0.00 0.00 70 1014.5
20260506205313 52 318 0.0 17.0 0.00 0.00 0.00 66 1014.5
20260506203413 53 311 0.0 17.0 0.00 0.00 0.00 63 1014.4
20260506201513 53 326 0.0 17.0 0.00 0.00 0.00 63 1014.2
20260506195614 54 308 0.0 17.0 0.00 0.00 0.00 64 1014.0
20260506193715 54 22 0.0 17.0 0.00 0.00 0.00 64 1013.8
20260506191815 54 14 0.0 17.0 0.00 0.00 0.00 63 1013.6
20260506185913 54 13 0.0 17.0 0.00 0.00 0.00 63 1013.5
20260506184014 55 17 0.0 17.0 0.00 0.00 0.00 62 1013.4
20260506182114 55 23 0.0 17.0 0.00 0.00 0.00 62 1013.3
20260506180215 55 45 0.0 17.0 0.00 0.00 0.00 61 1013.1
20260506174313 55 48 0.0 17.0 0.00 0.00 0.00 61 1012.9
20260506172415 55 50 0.0 17.0 0.00 0.00 0.00 58 1012.9
20260506170513 55 335 0.0 17.0 0.00 0.00 0.00 58 1012.9
20260506164614 55 353 0.0 17.0 0.00 0.00 0.00 58 1012.9
20260506162714 55 342 7.0 17.0 0.00 0.00 0.00 58 1012.9
20260506160814 55 351 1.0 17.0 0.00 0.00 0.00 57 1012.9
20260506154915 55 345 6.0 17.0 0.00 0.00 0.00 56 1012.9
20260506153015 55 333 7.0 17.0 0.00 0.00 0.00 56 1012.9
20260506151114 56 335 6.0 17.0 0.00 0.00 0.00 56 1012.9
20260506145213 55 309 2.0 17.0 0.00 0.00 0.00 57 1012.8
20260506143314 56 316 6.0 17.0 0.00 0.00 0.00 56 1012.8
20260506141414 57 330 3.0 17.0 0.00 0.00 0.00 56 1012.7
20260506135515 56 329 3.0 17.0 0.00 0.00 0.00 58 1012.8
20260506133614 55 324 7.0 17.0 0.00 0.00 0.00 58 1012.9
20260506131715 55 331 5.0 17.0 0.00 0.00 0.00 59 1013.0
20260506125814 55 330 1.0 17.0 0.00 0.00 0.00 60 1012.9
20260506123915 55 315 0.0 17.0 0.00 0.00 0.00 61 1012.9
20260506122013 54 337 3.0 17.0 0.00 0.00 0.00 63 1012.9
20260506120114 54 326 7.0 17.0 0.00 0.00 0.00 60 1013.0
20260506114214 55 326 6.0 17.0 0.00 0.00 0.00 59 1012.9
20260506112314 55 335 8.0 17.0 0.00 0.00 0.00 59 1012.9
20260506110415 55 338 6.0 17.0 0.00 0.00 0.00 58 1012.9
20260506104514 54 328 7.0 17.0 0.00 0.00 0.00 55 1012.8
20260506102614 54 322 7.0 17.0 0.00 0.00 0.00 58 1012.9
20260506100714 54 342 10.0 17.0 0.00 0.00 0.00 59 1012.9
20260506094815 53 326 2.0 17.0 0.00 0.00 0.00 59 1012.9
20260506092914 52 312 1.0 17.0 0.00 0.00 0.00 63 1012.9
20260506091014 52 327 6.0 17.0 0.00 0.00 0.00 65 1013.0
20260506085114 52 340 3.0 17.0 0.00 0.00 0.00 66 1012.9
20260506083216 50 327 1.0 17.0 0.00 0.00 0.00 69 1012.9
20260506081315 50 329 1.0 17.0 0.00 0.00 0.00 69 1012.9